Location: Poughquag
(41.6090°N, 73.6820°W)
Time: 01:47:58
(UTC-04:00)

Vanguard 1 Rocket - Pass Details

Date: 04 June 2020
Orbit: 653 x 4224 km, 34.3° (Epoch: 06 July)

Event Time Altitude Azimuth Distance (km) Brightness Sun altitude
Rises 00:26:41 0° 241° (WSW) 8,422 12.1 -25.6°
Reaches altitude 10° 00:32:59 10° 238° (WSW) 7,217 11.7 -25.7°
Maximum altitude 00:55:05 58° 167° (SSE) 3,177 9.7 -25.9°
Drops below altitude 10° 01:07:13 10° 92° (E) 4,235 10.8 -25.8°
Sets 01:09:51 0° 88° (E) 4,884 11.2 -25.8°
